Oscoda, MI

10:59 AM EST on December 06, 2019 (GMT -0500)
Oscoda-Wurtsmith

Weather History for KOSC - October, 2019

Change the Weather History Date:

Wednesday, October 23, 2019

  Actual Average Record
Temperature  
Mean Temperature 46 °F -  
Max Temperature 56 °F 51 °F 73 °F (1998)
Min Temperature 35 °F 36 °F 23 °F (2014)
Degree Days  
Heating Degree Days 20    
Moisture  
Dew Point 37 °F    
Average Humidity 72    
Maximum Humidity 90    
Minimum Humidity 45    
Precipitation  
Precipitation 0.00 in - - ()
Sea Level Pressure  
Sea Level Pressure 29.79 in    
Wind  
Wind Speed 13 mph ()    
Max Wind Speed 28 mph    
Max Gust Speed 36 mph    
Visibility 10.0 miles    
Events Rain    
Averages and records for this station are not official NWS values.
T = Trace of Precipitation, MM = Missing Value Source: Averaged Metar Reports

Daily Weather History Graph

Daily Weather History Graph

Search for Another Location

Airport or City:

Astronomy

Oct. 23, 2019 Rise Set
Actual Time 7:58 AM EDT 6:36 PM EDT
Civil Twilight 7:28 AM EDT 7:06 PM EDT
Nautical Twilight 6:54 AM EDT 7:39 PM EDT
Astronomical Twilight 6:21 AM EDT 8:13 PM EDT
Moon 1:58 AM EDT (10/23) 4:41 PM EDT (10/23)
Length of Visible Light 11h 37m
Length of Day
10h 37m
Waning Crescent, 27% of the Moon is Illuminated
Oct 23
Waning Crescent
Oct 27
New
Nov 4
First Quarter
Nov 12
Full
Nov 19
Last Quarter

Hourly Weather History & Observations

Time (EDT) Temp. Windchill Dew Point Humidity Pressure Visibility Wind Dir Wind Speed Gust Speed Precip Events Conditions
12:17 AM 45.7 °F 39.8 °F 39.7 °F 80% 29.62 in 10.0 mi SW 12.7 mph - N/A   Mostly Cloudy
12:35 AM 45.7 °F 39.1 °F 39.6 °F 79% 29.61 in 10.0 mi SW 15.0 mph 23.0 mph N/A   Overcast
12:55 AM 45.7 °F 39.8 °F 40.1 °F 81% 29.61 in 10.0 mi SSW 12.7 mph - N/A   Overcast
1:15 AM 45.1 °F 39.1 °F 40.1 °F 82% 29.62 in 10.0 mi SW 12.7 mph - N/A   Overcast
1:20 AM 45.0 °F 38.9 °F 40.1 °F 83% 29.62 in 10.0 mi SW 12.7 mph - N/A   Overcast
1:38 AM 45.5 °F 39.9 °F 40.5 °F 83% 29.62 in 10.0 mi SSW 11.5 mph - N/A   Overcast
1:56 AM 45.1 °F 39.1 °F 40.5 °F 84% 29.62 in 10.0 mi SW 12.7 mph - N/A   Overcast
2:15 AM 45.5 °F 38.3 °F 40.5 °F 83% 29.62 in 10.0 mi SW 17.3 mph 23.0 mph N/A   Overcast
2:16 AM 45.5 °F 38.3 °F 40.5 °F 83% 29.62 in 10.0 mi SW 17.3 mph 23.0 mph N/A   Overcast
2:35 AM 45.1 °F 39.5 °F 40.5 °F 84% 29.63 in 10.0 mi SSW 11.5 mph - N/A   Overcast
2:59 AM 45.0 °F 38.5 °F 40.6 °F 85% 29.63 in 10.0 mi SSW 13.8 mph 18.4 mph N/A   Overcast
3:17 AM 45.3 °F 38.7 °F 40.5 °F 83% 29.63 in 10.0 mi SSW 15.0 mph 20.7 mph N/A   Overcast
3:35 AM 45.5 °F 39.2 °F 40.1 °F 81% 29.63 in 10.0 mi SSW 13.8 mph 20.7 mph N/A   Overcast
3:36 AM 45.5 °F 39.2 °F 40.1 °F 81% 29.63 in 10.0 mi SSW 13.8 mph 20.7 mph N/A   Overcast
3:55 AM 45.5 °F 39.2 °F 40.1 °F 81% 29.63 in 10.0 mi SW 13.8 mph 20.7 mph N/A   Overcast
3:56 AM 45.5 °F 38.9 °F 40.1 °F 81% 29.63 in 10.0 mi SW 15.0 mph 20.7 mph N/A   Overcast
4:15 AM 45.7 °F 39.8 °F 39.7 °F 80% 29.63 in 10.0 mi SW 12.7 mph 20.7 mph N/A   Overcast
4:20 AM 45.5 °F 39.2 °F 39.7 °F 80% 29.63 in 10.0 mi SW 13.8 mph 20.7 mph N/A   Overcast
4:38 AM 45.5 °F 39.2 °F 39.4 °F 79% 29.63 in 10.0 mi SW 13.8 mph 19.6 mph N/A   Overcast
4:56 AM 45.5 °F 38.6 °F 39.6 °F 80% 29.64 in 10.0 mi SW 16.1 mph - N/A   Overcast
5:15 AM 45.1 °F 39.5 °F 40.1 °F 82% 29.65 in 7.0 mi WSW 11.5 mph 19.6 mph N/A   Drizzle
5:35 AM 45.0 °F 39.7 °F 40.5 °F 84% 29.66 in 10.0 mi SW 10.4 mph - N/A   Overcast
5:36 AM 45.0 °F 39.7 °F 40.3 °F 84% 29.66 in 10.0 mi SW 10.4 mph - N/A   Overcast
5:59 AM 45.3 °F 39.7 °F 40.1 °F 82% 29.67 in 10.0 mi SW 11.5 mph 17.3 mph N/A Rain Rain
6:17 AM 44.6 °F 40.2 °F 40.1 °F 84% 29.67 in 10.0 mi SW 8.1 mph - N/A Rain Light Rain
6:35 AM 44.6 °F 39.7 °F 40.1 °F 84% 29.68 in 10.0 mi SW 9.2 mph - N/A   Overcast
6:55 AM 42.8 °F 37.5 °F 39.2 °F 87% 29.68 in 10.0 mi SW 9.2 mph - N/A   Mostly Cloudy
7:15 AM 43.0 °F 38.2 °F 39.4 °F 87% 29.68 in 10.0 mi SSW 8.1 mph - N/A   Mostly Cloudy
7:38 AM 43.7 °F 38.1 °F 39.4 °F 85% 29.69 in 10.0 mi SSW 10.4 mph - N/A   Overcast
7:56 AM 43.7 °F 37.7 °F 38.7 °F 82% 29.69 in 10.0 mi SSW 11.5 mph - N/A   Mostly Cloudy
8:15 AM 43.7 °F 36.9 °F 38.7 °F 82% 29.70 in 10.0 mi SW 13.8 mph 18.4 mph N/A   Scattered Clouds
8:35 AM 44.8 °F 38.3 °F 39.0 °F 80% 29.71 in 10.0 mi SW 13.8 mph - N/A   Overcast
8:36 AM 44.8 °F 38.3 °F 39.0 °F 80% 29.71 in 10.0 mi SW 13.8 mph - N/A   Overcast
8:59 AM 45.5 °F 39.2 °F 38.5 °F 76% 29.72 in 10.0 mi SW 13.8 mph 26.5 mph N/A   Mostly Cloudy
9:17 AM 46.0 °F 40.2 °F 38.1 °F 74% 29.73 in 10.0 mi SW 12.7 mph - N/A   Scattered Clouds
9:35 AM 46.4 °F 38.7 °F 38.3 °F 73% 29.74 in 10.0 mi WSW 20.7 mph 28.8 mph N/A   Mostly Cloudy
9:55 AM 46.9 °F - 38.5 °F 72% 29.74 in 10.0 mi WSW 20.7 mph 26.5 mph N/A   Overcast
9:56 AM 46.9 °F - 38.3 °F 72% 29.75 in 10.0 mi WSW 19.6 mph 24.2 mph N/A   Overcast
10:15 AM 46.8 °F - 38.3 °F 72% 29.75 in 10.0 mi SW 18.4 mph - N/A   Mostly Cloudy
10:20 AM 47.3 °F - 38.3 °F 71% 29.75 in 10.0 mi SW 16.1 mph - N/A   Mostly Cloudy
10:38 AM 47.8 °F - 38.7 °F 70% 29.75 in 10.0 mi SW 20.7 mph 25.3 mph N/A   Overcast
10:56 AM 48.6 °F - 38.7 °F 69% 29.76 in 10.0 mi WSW 20.7 mph 28.8 mph N/A   Overcast
11:15 AM 49.1 °F - 38.3 °F 66% 29.76 in 10.0 mi WSW 20.7 mph 26.5 mph N/A   Overcast
11:16 AM 49.1 °F - 38.3 °F 66% 29.76 in 10.0 mi WSW 21.9 mph 26.5 mph N/A   Overcast
11:35 AM 48.9 °F - 37.9 °F 66% 29.77 in 10.0 mi WSW 20.7 mph 29.9 mph N/A   Overcast
11:36 AM 49.3 °F - 37.9 °F 65% 29.77 in 10.0 mi WSW 19.6 mph 29.9 mph N/A   Overcast
11:59 AM 50.0 °F - 37.4 °F 62% 29.78 in 10.0 mi WSW 21.9 mph 29.9 mph N/A   Overcast
12:17 PM 53.1 °F - 37.8 °F 56% 29.78 in 10.0 mi WSW 26.5 mph 33.4 mph N/A   Mostly Cloudy
12:35 PM 54.5 °F - 37.2 °F 52% 29.78 in 10.0 mi WSW 24.2 mph 32.2 mph N/A   Overcast
12:55 PM 54.3 °F - 36.7 °F 51% 29.78 in 10.0 mi WSW 24.2 mph 28.8 mph N/A   Overcast
1:15 PM 53.2 °F - 36.3 °F 53% 29.80 in 10.0 mi West 27.6 mph 33.4 mph N/A   Overcast
1:20 PM 53.6 °F - 36.0 °F 51% 29.80 in 10.0 mi West 21.9 mph 31.1 mph N/A   Overcast
1:38 PM 53.1 °F - 35.1 °F 50% 29.81 in 10.0 mi West 27.6 mph 34.5 mph N/A   Mostly Cloudy
1:56 PM 52.2 °F - 35.1 °F 52% 29.82 in 10.0 mi WSW 23.0 mph 35.7 mph N/A   Scattered Clouds
2:15 PM 52.7 °F - 36.0 °F 53% 29.82 in 10.0 mi WSW 24.2 mph - N/A   Scattered Clouds
2:35 PM 52.2 °F - 35.8 °F 54% 29.82 in 10.0 mi West 19.6 mph 29.9 mph N/A   Mostly Cloudy
2:59 PM 55.8 °F - 37.0 °F 49% 29.81 in 10.0 mi WSW 19.6 mph 26.5 mph N/A   Mostly Cloudy
3:17 PM 56.1 °F - 36.3 °F 47% 29.82 in 10.0 mi WSW 20.7 mph 28.8 mph N/A   Mostly Cloudy
3:35 PM 55.9 °F - 35.8 °F 47% 29.82 in 10.0 mi WSW 23.0 mph 28.8 mph N/A   Mostly Cloudy
3:55 PM 55.9 °F - 35.8 °F 47% 29.83 in 10.0 mi WSW 19.6 mph 27.6 mph N/A   Scattered Clouds
4:15 PM 56.5 °F - 35.4 °F 45% 29.83 in 10.0 mi WSW 23.0 mph - N/A   Mostly Cloudy
4:20 PM 56.1 °F - 35.4 °F 46% 29.84 in 10.0 mi WSW 17.3 mph 25.3 mph N/A   Mostly Cloudy
4:38 PM 54.7 °F - 35.2 °F 48% 29.85 in 10.0 mi WSW 17.3 mph 25.3 mph N/A   Scattered Clouds
4:56 PM 55.2 °F - 34.9 °F 46% 29.85 in 10.0 mi West 19.6 mph 27.6 mph N/A   Scattered Clouds
5:15 PM 55.8 °F - 35.1 °F 46% 29.85 in 10.0 mi WSW 19.6 mph 29.9 mph N/A   Mostly Cloudy
5:35 PM 54.5 °F - 35.1 °F 48% 29.86 in 10.0 mi WSW 15.0 mph 24.2 mph N/A   Scattered Clouds
5:36 PM 54.5 °F - 35.2 °F 48% 29.86 in 10.0 mi WSW 17.3 mph 24.2 mph N/A   Scattered Clouds
5:59 PM 53.1 °F - 35.4 °F 51% 29.87 in 10.0 mi WSW 16.1 mph 20.7 mph N/A   Scattered Clouds
6:17 PM 51.8 °F - 35.1 °F 53% 29.88 in 10.0 mi SW 11.5 mph - N/A   Clear
6:35 PM 48.9 °F - 35.1 °F 59% 29.88 in 10.0 mi WSW 8.1 mph - N/A   Clear
6:55 PM 45.9 °F 41.7 °F 34.3 °F 64% 29.90 in 10.0 mi WSW 8.1 mph - N/A   Clear
7:15 PM 45.7 °F 41.5 °F 34.7 °F 65% 29.92 in 10.0 mi SW 8.1 mph - N/A   Clear
7:20 PM 44.2 °F 40.3 °F 33.8 °F 67% 29.92 in 10.0 mi SW 6.9 mph - N/A   Clear
7:38 PM 45.3 °F 44.0 °F 34.5 °F 66% 29.93 in 10.0 mi NW 3.5 mph - N/A   Clear
7:56 PM 45.5 °F - 35.4 °F 68% 29.94 in 10.0 mi Calm Calm - N/A   Clear
8:15 PM 43.2 °F 40.5 °F 34.5 °F 72% 29.95 in 10.0 mi SW 4.6 mph - N/A   Clear
8:35 PM 41.2 °F 39.2 °F 34.2 °F 76% 29.95 in 10.0 mi WSW 3.5 mph - N/A   Clear
8:36 PM 41.2 °F 38.2 °F 34.0 °F 76% 29.95 in 10.0 mi WSW 4.6 mph - N/A   Clear
8:58 PM 41.9 °F - 35.8 °F 79% 29.97 in 10.0 mi Calm Calm - N/A   Clear
9:17 PM 40.8 °F - 34.5 °F 78% 29.98 in 10.0 mi Calm Calm - N/A   Clear
9:35 PM 39.7 °F - 33.8 °F 79% 29.98 in 10.0 mi Calm Calm - N/A   Clear
9:55 PM 37.4 °F - 32.4 °F 82% 29.99 in 10.0 mi Calm Calm - N/A   Clear
9:56 PM 36.9 °F - 32.2 °F 83% 29.99 in 10.0 mi Calm Calm - N/A   Clear
10:15 PM 36.5 °F - 32.4 °F 85% 29.99 in 10.0 mi Calm Calm - N/A   Clear
10:20 PM 35.8 °F - 32.0 °F 86% 29.98 in 10.0 mi Calm Calm - N/A   Clear
10:38 PM 36.5 °F - 32.9 °F 87% 29.99 in 10.0 mi Calm Calm - N/A   Clear
10:56 PM 36.1 °F - 32.7 °F 87% 30.00 in 10.0 mi Calm Calm - N/A   Scattered Clouds
11:15 PM 36.5 °F - 32.5 °F 86% 30.00 in 10.0 mi Calm Calm - N/A   Overcast
11:16 PM 36.5 °F - 32.5 °F 86% 30.00 in 10.0 mi Calm Calm - N/A   Overcast
11:35 PM 37.4 °F - 34.3 °F 89% 30.00 in 10.0 mi Calm Calm - N/A   Overcast
11:36 PM 37.4 °F - 34.5 °F 89% 30.00 in 10.0 mi Calm Calm - N/A   Overcast
11:59 PM 38.7 °F - 36.0 °F 90% 29.99 in 10.0 mi Calm Calm - N/A   Overcast